CAPE
2 2 2 2 1 1 0 0 0 0 0 0 0 0 0 0 0 0 0 0 0 77 4 0 0 0 0 0 0 0 0 0 0 5 14 8 0 0 0 0 0 0 0 0 0
1 1 1 2 2 2 1 1 0 0 0 0 0 0 0 0 0 0 0 0 20 80 0 0 0 0 0 0 0 0 0 0 0 1 4 2 0 0 0 0 0 0 0 0 0
1 1 1 1 1 2 2 1 0 0 0 0 0 0 0 0 0 0 5 0 41 26 0 0 0 0 0 0 0 0 0 0 0 0 0 0 0 0 0 0 0 0 0 0 0
3 2 2 2 3 2 1 0 0 0 0 0 0 0 0 0 0 0 224 69 38 0 0 0 0 0 0 0 0 0 0 0 0 0 0 0 0 0 0 0 0 0 0 0 0
0 3 4 3 2 2 2 2 0 0 0 0 0 0 0 0 0 0 117 118 0 0 0 0 0 0 0 0 0 0 0 0 0 0 0 0 0 0 0 0 0 0 0 0 0
6 0 1 3 3 2 5 3 1 0 0 0 0 0 0 0 0 0 0 0 0 0 0 0 0 0 0 0 0 0 0 0 0 0 0 0 0 0 0 0 0 0 0 0 0
20 12 5 0 1 1 4 2 0 0 0 0 0 0 0 0 0 0 0 0 0 0 0 0 0 0 0 0 0 0 0 0 0 0 0 0 0 0 0 0 0 0 0 0 0
20 22 16 11 2 0 0 0 0 0 0 0 1 0 0 0 0 0 0 0 0 0 0 0 0 0 0 0 0 0 0 0 1 0 0 0 0 0 0 0 0 0 0 0 0
24 18 19 18 3 0 0 0 0 0 0 1 0 0 0 0 0 0 0 0 0 0 0 0 0 0 0 0 0 0 0 3 3 0 0 0 0 0 0 0 0 0 0 0 0
47 27 19 13 0 0 0 0 0 0 1 0 0 0 0 0 0 0 0 0 0 0 0 0 0 0 0 0 0 0 0 0 0 0 0 0 0 0 0 0 0 0 0 0 0
37 46 38 23 10 0 0 0 0 0 0 0 0 0 0 0 0 0 0 0 0 0 0 0 0 0 0 0 0 0 0 0 0 0 0 0 0 0 0 0 0 0 0 0 0
33 55 60 41 22 0 0 0 0 0 0 0 0 0 0 0 0 0 0 0 0 0 0 0 0 0 0 0 0 0 0 0 0 0 0 0 0 0 0 0 0 0 0 0 0
57 60 64 55 25 0 0 0 0 0 0 0 0 0 0 0 0 0 0 0 0 0 0 0 0 0 0 0 0 0 0 0 0 0 0 0 0 0 0 0 0 0 0 0 0
48 60 61 59 0 0 0 0 0 0 0 0 0 0 0 0 0 0 0 0 0 0 0 0 0 0 0 0 0 0 0 0 0 0 0 0 0 0 0 0 0 1 0 0 0
62 35 68 47 25 0 0 0 0 0 0 0 0 0 0 0 0 0 0 0 0 0 0 0 0 0 0 0 0 0 0 0 0 0 0 0 0 0 0 0 0 0 26 4 0
20 54 74 36 46 4 0 0 0 0 0 0 0 0 0 0 0 0 0 0 0 0 0 0 0 0 0 0 0 0 0 0 0 0 0 0 0 0 0 0 0 0 64 38 0
1 32 72 57 13 12 1 0 0 0 0 0 0 0 0 0 0 0 0 0 0 0 0 0 0 0 0 0 0 0 0 0 3 7 0 0 0 0 0 0 0 4 11 31 0
9 69 47 35 5 15 14 0 0 0 0 0 0 0 0 0 0 0 0 0 0 0 0 0 0 0 0 0 0 0 0 0 2 6 10 0 0 0 0 0 49 99 213 69 0
43 19 73 68 20 0 61 14 0 0 0 0 0 0 0 0 0 0 0 0 0 0 0 0 0 0 0 0 0 0 0 0 0 0 2 0 1 0 0 18 86 183 137 33 0
33 22 52 86 105 17 56 2 0 0 0 0 0 0 0 0 0 0 0 0 0 0 0 0 0 0 0 0 0 0 0 0 0 0 12 4 0 10 25 94 488 327 192 26 0
21 54 24 113 174 35 58 0 0 0 0 0 0 0 0 0 0 0 0 0 0 0 0 0 0 0 0 0 0 0 0 0 0 3 6 21 26 8 8 223 508 549 262 41 0
17 46 97 225 60 18 32 0 0 0 0 0 0 0 0 0 0 0 0 0 0 0 0 0 0 0 0 0 0 0 0 0 0 0 0 3 11 15 36 402 576 699 302 36 0
30 30 87 151 48 36 13 20 60 8 0 0 0 0 0 0 0 0 0 0 0 0 0 0 0 0 0 0 0 0 0 0 0 6 9 12 10 17 158 380 688 755 318 13 0
72 24 73 27 51 124 39 50 32 38 1 0 0 0 0 0 0 0 0 0 0 0 0 0 0 0 0 0 0 0 0 0 0 8 1 1 3 45 42 193 461 657 381 57 0
68 70 90 168 4 109 52 87 56 39 25 0 0 0 0 0 0 0 0 0 0 0 0 0 0 0 0 0 0 0 0 0 0 0 0 0 1 1 30 85 183 626 429 76 0
78 129 16 135 86 88 89 5 17 30 54 0 4 0 1 0 14 0 0 0 0 0 0 2 0 0 0 0 0 0 0 0 0 0 0 0 0 8 20 27 265 577 423 200 4
9 7 12 78 107 34 58 81 66 95 66 13 0 3 4 5 0 0 0 0 0 0 0 0 0 0 0 0 0 0 0 0 0 0 0 0 0 0 2 58 242 533 375 299 134
CIN
-0 -0 -0 -0 -0 -0 -0 -0 -0 -0 -0 -0 -0 -0 -0 -0 -0 -0 -0 -0 -0 -823 -786 -0 -0 -0 -0 -0 -0 -0 -0 -0 -0 -0 -0 -0 -0 -0 -0 -0 -0 -0 -0 -0 -0
-0 -0 -0 -0 -0 -0 -0 -0 -0 -0 -0 -0 -0 -0 -0 -0 -0 -0 -0 -0 -787 -779 -0 -0 -0 -0 -0 -0 -0 -0 -0 -0 -0 -0 -0 -0 -0 -0 -0 -0 -0 -0 -0 -0 -0
-0 -0 -0 -0 -0 -0 -0 -0 -0 -0 -0 -0 -0 -0 -0 -0 -0 -0 -884 -0 -923 -770 -0 -0 -0 -0 -0 -0 -0 -0 -0 -0 -0 -0 -0 -0 -0 -0 -0 -0 -0 -0 -0 -0 -0
-0 -0 -0 -0 -0 -0 -0 -0 -0 -0 -0 -0 -0 -0 -0 -0 -0 -0 -680 -814 -845 -0 -0 -0 -0 -0 -0 -0 -0 -0 -0 -0 -0 -0 -0 -0 -0 -0 -0 -0 -0 -0 -0 -0 -0
-0 -0 -0 -0 -0 -0 -0 -0 -0 -0 -0 -0 -0 -0 -0 -0 -0 -0 -585 -630 -0 -0 -0 -0 -0 -0 -0 -0 -0 -0 -0 -0 -0 -0 -0 -0 -0 -0 -0 -0 -0 -0 -0 -0 -0
-5 -0 -0 -0 -0 -0 -0 -0 -0 -0 -0 -0 -0 -0 -0 -0 -0 -0 -0 -0 -0 -0 -0 -0 -0 -0 -0 -0 -0 -0 -0 -0 -0 -0 -0 -0 -0 -0 -0 -0 -0 -0 -0 -0 -0
-5 -7 -3 -0 -0 -0 -0 -0 -0 -0 -0 -0 -0 -0 -0 -0 -0 -0 -0 -0 -0 -0 -0 -0 -0 -0 -0 -0 -0 -0 -0 -0 -0 -0 -0 -0 -0 -0 -0 -0 -0 -0 -0 -0 -0
-8 -8 -7 -3 -1 -0 -0 -0 -0 -0 -0 -0 -0 -0 -0 -0 -0 -0 -0 -0 -0 -0 -0 -0 -0 -0 -0 -0 -0 -0 -0 -0 -1 -0 -0 -0 -0 -0 -0 -0 -0 -0 -0 -0 -0
-0 -6 -11 -4 -0 -0 -0 -0 -0 -0 -0 -0 -0 -0 -0 -0 -0 -0 -0 -0 -0 -0 -0 -0 -0 -0 -0 -0 -0 -0 -0 -0 -0 -0 -0 -0 -0 -0 -0 -0 -0 -0 -0 -0 -0
-0 -1 -5 -5 -0 -0 -0 -0 -0 -0 -0 -0 -0 -0 -0 -0 -0 -0 -0 -0 -0 -0 -0 -0 -0 -0 -0 -0 -0 -0 -0 -0 -0 -0 -0 -0 -0 -0 -0 -0 -0 -0 -0 -0 -0
-0 -1 -3 -2 -4 -0 -0 -0 -0 -0 -0 -0 -0 -0 -0 -0 -0 -0 -0 -0 -0 -0 -0 -0 -0 -0 -0 -0 -0 -0 -0 -0 -0 -0 -0 -0 -0 -0 -0 -0 -0 -0 -0 -0 -0
-1 -0 -1 -2 -2 -0 -0 -0 -0 -0 -0 -0 -0 -0 -0 -0 -0 -0 -0 -0 -0 -0 -0 -0 -0 -0 -0 -0 -0 -0 -0 -0 -0 -0 -0 -0 -0 -0 -0 -0 -0 -0 -0 -0 -0
-2 -1 -0 -2 -1 -0 -0 -0 -0 -0 -0 -0 -0 -0 -0 -0 -0 -0 -0 -0 -0 -0 -0 -0 -0 -0 -0 -0 -0 -0 -0 -0 -0 -0 -0 -0 -0 -0 -0 -0 -0 -0 -0 -0 -0
-0 -1 -2 -1 -0 -0 -0 -0 -0 -0 -0 -0 -0 -0 -0 -0 -0 -0 -0 -0 -0 -0 -0 -0 -0 -0 -0 -0 -0 -0 -0 -0 -0 -0 -0 -0 -0 -0 -0 -0 -0 -89 -0 -0 -0
-0 -5 -6 -5 -0 -0 -0 -0 -0 -0 -0 -0 -0 -0 -0 -0 -0 -0 -0 -0 -0 -0 -0 -0 -0 -0 -0 -0 -0 -0 -0 -0 -0 -0 -0 -0 -0 -0 -0 -0 -0 -0 -52 -183 -0
-2 -1 -5 -2 -0 -0 -0 -0 -0 -0 -0 -0 -0 -0 -0 -0 -0 -0 -0 -0 -0 -0 -0 -0 -0 -0 -0 -0 -0 -0 -0 -0 -0 -0 -0 -0 -0 -0 -0 -0 -0 -0 -54 -150 -0
-0 -0 -2 -0 -3 -0 -0 -0 -0 -0 -0 -0 -0 -0 -0 -0 -0 -0 -0 -0 -0 -0 -0 -0 -0 -0 -0 -0 -0 -0 -0 -0 -0 -0 -0 -0 -0 -0 -0 -0 -0 -102 -67 -186 -0
-0 -0 -2 -0 -42 -1 -0 -0 -0 -0 -0 -0 -0 -0 -0 -0 -0 -0 -0 -0 -0 -0 -0 -0 -0 -0 -0 -0 -0 -0 -0 -0 -0 -0 -0 -0 -0 -0 -0 -0 -60 -55 -60 -175 -0
-1 -0 -0 -0 -16 -3 -0 -0 -0 -0 -0 -0 -0 -0 -0 -0 -0 -0 -0 -0 -0 -0 -0 -0 -0 -0 -0 -0 -0 -0 -0 -0 -0 -0 -0 -0 -0 -0 -0 -14 -22 -53 -143 -241 -0
-1 -0 -0 -0 -0 -16 -0 -0 -0 -0 -0 -0 -0 -0 -0 -0 -0 -0 -0 -0 -0 -0 -0 -0 -0 -0 -0 -0 -0 -0 -0 -0 -0 -0 -0 -0 -0 -0 -0 -0 -11 -54 -113 -220 -0
-1 -0 -0 -0 -0 -0 -0 -0 -0 -0 -0 -0 -0 -0 -0 -0 -0 -0 -0 -0 -0 -0 -0 -0 -0 -0 -0 -0 -0 -0 -0 -0 -0 -0 -0 -17 -0 -0 -0 -4 -1 -16 -73 -183 -0
-4 -0 -0 -0 -0 -0 -11 -0 -0 -0 -0 -0 -0 -0 -0 -0 -0 -0 -0 -0 -0 -0 -0 -0 -0 -0 -0 -0 -0 -0 -0 -0 -0 -0 -0 -0 -2 -0 -6 -3 -7 -11 -62 -119 -0
-0 -0 -0 -0 -0 -2 -10 -0 -0 -0 -0 -0 -0 -0 -0 -0 -0 -0 -0 -0 -0 -0 -0 -0 -0 -0 -0 -0 -0 -0 -0 -0 -0 -0 -0 -3 -7 -3 -7 -5 -12 -14 -55 -131 -4
-0 -0 -0 -0 -13 -0 -0 -0 -0 -0 -0 -0 -0 -0 -0 -0 -0 -0 -0 -0 -0 -0 -0 -12 -0 -0 -0 -0 -0 -0 -0 -0 -0 -0 -0 -0 -3 -0 -3 -3 -9 -18 -56 -98 -0
-0 -0 -0 -0 -2 -0 -0 -0 -0 -0 -0 -0 -0 -0 -0 -0 -0 -0 -0 -0 -0 -0 -0 -0 -0 -0 -0 -0 -0 -0 -0 -0 -0 -0 -0 -0 -0 -0 -0 -0 -0 -10 -39 -81 -11
-0 -0 -0 -0 -0 -0 -0 -0 -5 -0 -0 -0 -0 -0 -2 -0 -2 -0 -0 -0 -0 -0 -0 -20 -0 -0 -0 -0 -0 -0 -0 -0 -0 -0 -0 -0 -0 -0 -0 -7 -2 -8 -41 -57 -14
-0 -0 -0 -0 -0 -0 -0 -0 -0 -0 -0 -0 -0 -1 -0 -5 -0 -0 -0 -0 -0 -0 -0 -0 -0 -0 -0 -0 -0 -0 -0 -0 -0 -0 -0 -0 -0 -0 -0 -7 -2 -9 -27 -34 -67
Wind_Speed
16 16 16 17 17 17 19 18 17 16 15 15 17 16 14 15 12 5 16 8 10 16 9 12 10 11 13 12 10 6 12 12 12 13 12 4 11 4 3 8 7 8 7 3 7
17 17 17 16 16 17 17 18 17 18 17 19 16 18 16 14 9 20 11 17 16 22 17 16 15 14 12 14 9 11 12 15 8 11 14 16 9 13 7 8 10 9 5 5 10
15 17 17 17 16 14 14 16 16 17 16 15 14 15 15 13 13 7 3 13 16 24 19 19 12 16 17 12 13 14 15 14 14 14 16 18 13 10 11 12 10 9 11 11 11
14 14 15 14 14 15 17 17 18 16 18 18 16 16 16 6 8 5 9 12 18 21 17 17 17 19 17 18 15 15 15 16 15 12 12 9 7 9 12 12 5 5 4 13 14
12 14 15 16 17 17 16 16 16 16 16 15 15 15 8 10 14 5 8 10 13 19 22 21 20 20 19 17 15 14 17 14 13 12 9 3 9 8 10 6 6 6 10 14 12
9 12 13 15 16 17 16 17 16 17 18 15 13 12 7 19 6 10 11 10 11 18 21 24 20 21 15 17 15 12 11 13 11 11 6 8 4 5 7 2 9 10 12 12 12
9 10 11 13 15 17 17 16 17 19 19 16 12 8 10 23 3 2 6 8 10 18 16 24 22 16 17 12 15 11 14 13 13 10 6 6 9 10 9 4 9 12 11 12 11
10 10 11 12 15 17 19 19 21 22 20 16 9 8 12 8 15 21 19 14 5 11 14 15 19 17 12 7 10 14 15 15 13 9 6 7 9 10 5 9 13 13 13 12 13
13 10 10 12 14 16 17 20 25 18 8 4 8 8 14 7 13 19 16 17 20 15 10 8 19 17 15 15 16 15 15 19 10 11 6 11 13 7 6 9 13 12 14 13 13
12 12 12 10 13 15 16 22 8 7 5 7 5 7 12 11 11 7 12 19 10 16 13 14 13 16 18 17 16 16 13 11 13 10 10 12 14 14 14 13 12 13 14 14 14
15 10 13 11 12 13 16 5 8 9 10 12 11 16 3 5 4 10 9 16 15 19 18 21 20 23 26 22 16 13 12 14 11 5 10 15 14 15 15 17 13 14 14 16 15
16 14 10 10 11 11 11 7 3 5 11 19 25 19 21 4 6 14 13 15 20 22 22 17 23 25 21 18 16 15 17 17 11 9 9 16 17 18 17 17 13 13 14 16 15
12 14 13 9 8 10 7 6 3 4 10 14 22 24 25 19 12 15 20 21 23 27 27 23 20 22 19 15 18 19 17 14 12 12 12 16 18 14 8 9 10 11 12 15 17
13 11 12 6 6 3 6 7 4 4 9 11 12 14 28 21 19 23 21 19 19 28 26 22 19 19 18 22 20 20 15 15 13 13 12 4 15 14 11 12 12 12 12 13 16
13 14 10 10 8 6 7 1 6 5 10 6 13 9 18 30 9 27 21 20 20 19 25 23 23 23 22 20 19 15 12 12 14 12 12 16 9 10 6 10 9 7 12 13 16
14 14 9 2 8 11 4 6 5 9 16 10 12 17 19 28 17 17 26 18 16 20 20 23 15 19 19 14 12 14 8 9 8 11 12 15 10 10 3 4 5 6 3 10 15
15 13 11 5 3 10 5 8 10 17 7 12 13 19 25 19 27 18 31 30 20 23 22 25 20 19 17 18 13 16 13 10 10 10 11 2 7 10 10 8 9 9 4 9 15
14 11 11 10 9 10 7 11 19 21 28 9 14 21 24 20 25 25 25 29 29 24 18 22 25 25 17 19 16 19 17 11 10 12 11 5 7 4 2 5 5 4 4 10 17
10 9 10 10 11 7 9 18 23 24 16 26 11 21 19 21 12 24 27 29 31 28 19 23 24 27 23 21 20 14 15 15 16 14 9 12 6 11 7 7 4 3 6 12 17
8 8 11 15 13 5 8 31 22 18 6 19 31 20 24 25 17 25 25 22 31 32 25 9 20 15 23 19 22 21 15 11 10 13 13 9 6 6 2 6 4 7 9 14 17
7 5 4 14 10 6 13 31 28 23 7 11 20 28 23 21 24 27 19 12 32 32 26 15 12 21 17 22 22 13 17 14 13 13 12 9 6 5 2 3 3 8 11 16 17
6 5 5 12 9 3 9 32 32 19 21 20 11 20 22 21 25 24 23 22 23 27 35 29 12 14 21 20 22 22 22 21 12 15 10 11 9 5 4 1 1 9 13 17 17
4 3 3 9 10 12 11 26 25 22 16 14 17 13 21 21 17 24 19 14 17 27 27 24 15 16 16 10 14 22 21 21 20 15 15 12 9 7 6 5 3 11 14 15 18
3 3 4 1 8 18 24 19 18 18 21 21 19 19 19 20 18 15 19 18 18 26 14 22 17 26 22 20 18 22 21 23 22 17 15 16 16 9 8 9 8 9 13 16 19
3 4 3 4 6 13 9 10 12 19 21 20 12 19 14 16 22 17 18 17 16 22 22 20 24 24 24 21 24 20 22 24 25 23 20 16 17 14 9 8 8 11 13 16 20
3 3 3 2 4 15 14 17 21 17 18 25 22 24 6 12 12 20 16 17 21 19 25 21 15 19 20 24 20 22 24 23 25 25 22 19 17 10 11 5 7 11 15 17 21
1 3 2 3 4 2 3 12 19 17 19 22 25 14 16 5 11 11 10 2 3 19 20 20 16 15 20 19 20 24 25 25 23 25 22 22 18 15 10 12 12 13 15 17 18
Wind_Direction
353 354 355 353 352 351 348 345 348 342 335 330 328 325 330 331 310 179 249 212 180 166 153 165 186 189 199 220 226 248 259 259 267 278 292 281 279 157 312 244 221 195 264 44 153
345 345 350 347 346 346 340 334 339 336 335 332 334 323 325 337 291 265 240 210 155 164 185 194 194 190 196 218 206 228 250 262 284 294 285 294 278 295 223 212 229 222 199 192 177
336 337 338 336 335 335 329 327 334 334 326 314 311 309 319 309 268 254 167 189 162 170 202 204 208 199 222 218 208 224 254 277 272 270 292 288 286 260 255 262 247 244 208 200 196
325 328 327 323 323 327 328 327 325 324 317 316 327 319 322 264 263 75 27 150 170 190 209 202 200 203 218 213 223 241 249 260 270 292 290 277 272 249 242 273 358 237 222 192 200
321 322 324 326 329 324 316 314 315 312 307 312 321 325 311 245 247 182 152 132 173 198 208 205 201 206 216 216 229 230 263 258 269 274 260 270 244 277 268 283 228 231 195 201 203
303 313 319 319 316 314 315 319 314 305 312 317 311 305 252 254 263 250 241 241 228 200 206 209 212 214 232 232 233 244 259 273 265 251 210 237 224 247 290 263 223 216 209 205 202
275 287 301 308 310 314 314 311 308 309 309 302 290 260 247 241 200 239 212 241 224 206 213 216 219 206 223 223 232 253 255 240 234 217 224 243 245 253 282 200 237 227 218 206 199
263 275 290 300 306 312 313 311 306 301 296 285 241 218 255 253 253 250 247 246 187 203 233 210 220 218 223 188 204 230 236 251 192 201 160 225 269 271 287 217 233 223 217 205 200
276 273 278 290 294 308 308 304 300 294 254 198 182 234 258 115 226 237 225 218 221 220 228 201 200 213 208 228 238 225 250 231 233 197 194 217 277 282 298 255 261 235 221 210 197
300 273 276 290 300 302 313 290 288 249 170 184 255 227 239 228 214 217 198 211 191 188 188 197 191 198 217 214 229 232 222 243 257 184 224 252 255 270 277 249 256 252 228 216 207
303 289 276 284 292 309 324 295 208 186 208 216 187 229 85 255 230 211 172 191 203 187 188 192 205 206 209 218 239 267 259 258 253 271 264 275 285 287 281 274 254 253 224 217 208
298 298 280 269 282 308 290 277 36 357 289 236 250 239 261 301 237 216 178 184 192 197 200 187 216 211 220 217 229 232 243 249 254 267 278 289 285 293 288 270 262 243 222 213 199
288 293 298 257 280 272 274 288 326 312 257 249 225 226 224 212 234 202 192 207 193 201 200 204 213 216 212 213 217 228 242 248 260 293 273 264 271 284 288 243 244 241 228 206 199
292 286 293 265 266 265 244 146 291 292 271 241 203 235 210 218 233 228 200 196 208 208 205 217 216 187 199 217 216 233 220 260 259 269 283 349 294 293 269 264 229 223 216 207 195
288 279 274 246 329 245 72 259 317 224 268 165 175 147 187 188 154 197 193 203 213 205 201 206 205 191 206 214 212 242 236 234 258 271 285 266 253 291 256 275 261 241 205 200 188
273 266 259 274 242 262 268 297 227 216 236 193 158 182 173 200 212 153 184 202 217 212 211 223 207 201 212 212 215 227 202 226 248 259 252 260 260 279 278 301 282 253 71 179 178
264 268 238 151 237 253 247 230 202 228 164 185 180 178 180 186 203 176 187 193 189 194 200 213 190 208 214 207 204 222 213 227 219 218 251 129 255 260 307 292 290 291 306 169 171
248 258 224 221 220 278 229 220 221 221 223 117 189 182 192 172 202 190 190 195 209 201 190 198 206 191 196 206 186 202 210 238 231 245 253 155 256 228 333 314 290 298 303 153 170
231 235 239 212 206 211 242 216 221 219 220 226 192 192 197 189 192 195 205 204 199 199 212 196 208 194 202 209 218 181 220 229 256 269 272 276 207 251 254 239 212 192 145 158 168
224 223 235 200 183 180 221 237 230 234 287 219 223 201 197 191 202 192 191 209 205 211 213 190 207 187 195 207 212 227 199 201 222 243 241 243 240 264 275 35 114 169 154 161 167
204 216 205 178 164 203 213 228 237 269 328 292 238 230 223 190 204 193 197 186 202 195 207 184 205 193 190 204 203 186 223 214 254 226 233 249 258 82 291 48 56 154 158 164 172
211 214 178 143 192 216 229 229 239 284 319 266 301 268 230 223 201 197 217 202 191 188 198 202 198 178 211 197 219 201 213 206 222 210 247 280 264 116 261 112 275 156 165 170 170
215 235 177 182 203 218 246 244 250 248 277 313 276 255 250 232 224 216 209 197 186 190 195 189 209 205 194 186 214 225 211 217 216 247 241 228 229 137 166 196 188 166 163 170 173
167 217 192 241 261 242 231 245 253 257 257 272 269 292 269 237 224 207 209 190 192 189 183 191 200 209 208 200 194 208 223 214 215 222 231 236 253 206 206 215 177 178 169 172 178
233 221 264 189 230 256 256 242 254 239 239 265 288 245 281 235 218 224 204 177 200 189 187 188 209 208 225 214 200 207 213 213 218 218 232 231 234 236 240 207 215 180 177 176 179
171 245 202 206 280 213 228 244 254 245 245 245 249 275 277 261 269 214 200 191 186 181 192 191 211 219 212 220 210 214 217 211 217 221 228 239 251 221 243 270 182 180 183 186 186
139 207 235 154 180 211 288 244 254 251 236 251 242 265 260 324 319 325 324 355 153 186 188 190 206 206 218 215 222 226 216 214 219 224 226 230 234 245 229 232 210 189 192 192 195